Flag for Saudi Arabia Weather past 2 weeks in Medina, Saudi Arabia

Now
84 °F

Clear.


Feels Like: 82 °F
Forecast: 74 / 102 °F
Wind: No wind

Location: Madinah

Current Time: Apr 28, 2015 at 9:03:39 AM

Latest Report: Apr 28, 2015 at 8:00 AM


Visibility: 4 mi

Pressure: 30.04 "Hg

Humidity: 29%

Dew point: 48 °F

Location of MedinaLocation

Historic Weather in Medina — Graph

°F

Medina temperature yesterday

Maximum temperature yesterday: 99 °F (at 2:00 PM)
Minimum temperature yesterday: 81 °F (at 5:00 AM)
Average temperature yesterday: 89 °F

Past Weeks' High & Low Weather Summary

 TemperatureHumidityPressure
High99 °F (Apr 20, 3:00 PM)39% (Apr 22, 6:00 AM)30.24 "Hg (Apr 22, 6:00 AM)
Low64 °F (Apr 13, 8:00 AM)2% (Apr 13, 6:00 PM)29.86 "Hg (Apr 14, 4:00 PM)
Average84 °F13%30.01 "Hg
* Reported Apr 13 8:00 AM — Apr 28 8:00 AM, Medina, Weather by CustomWeather, © 2015

Note: Actual official high and low records may vary slightly from our data, if they occured in-between our weather recording intervals... More about our weather records

Advertising

Medina weather history for previous 24 hours

 ConditionsComfort  
Time TempWeatherWind HumidityBarometerVisibility
8:00 AM
Tue, Apr 28
84 °FClear.No wind29%30.04 "Hg4 mi
7:00 AM79 °FClear.6 mph30%30.01 "Hg4 mi
6:00 AM77 °FClear.5 mph32%30.01 "Hg4 mi
5:00 AM81 °FClear.5 mph30%29.98 "Hg5 mi
4:00 AM81 °FClear.5 mph30%29.98 "Hg5 mi
3:00 AM82 °FClear.5 mph30%29.98 "Hg5 mi
2:00 AM86 °FClear.5 mph27%29.98 "Hg10 mi
1:00 AM86 °FClear.6 mph27%29.98 "Hg10 mi
12:00 AM86 °FClear.No wind27%29.98 "Hg10 mi
11:00 PM
Mon, Apr 27
90 °FClear.7 mph26%30.01 "Hg10 mi
10:00 PM90 °FClear.13 mph24%29.98 "Hg10 mi
9:00 PM91 °FClear.16 mph23%29.98 "Hg10 mi
8:00 PM93 °FClear.15 mph19%29.95 "Hg10 mi
7:00 PM93 °FClear.22 mph19%29.92 "Hg6 mi
6:00 PM97 °FSunny.20 mph16%29.92 "Hg5 mi
5:00 PM99 °FPassing clouds.15 mph14%29.92 "Hg4 mi
4:00 PM99 °FPassing clouds.22 mph13%29.92 "Hg4 mi
3:00 PM99 °FSunny.23 mph13%29.92 "Hg3 mi
2:00 PM99 °FSunny.16 mph11%29.92 "Hg2 mi
1:00 PM95 °FSunny.7 mph12%29.98 "Hg2 mi
11:00 AM91 °FSunny.3 mph10%30.01 "Hg1 mi
10:00 AM90 °FSunny.5 mph7%30.04 "Hg1 mi
9:00 AM86 °FSunny.9 mph9%30.04 "Hg1 mi
Weather by CustomWeather, © 2015

See weather overviewHow to use our weather pages